User: anonymous   Login
Location: Brno
(49.2000°N, 16.6330°E)
Time: 13:09:33
(UTC+02:00)
Language:

Meteor 1-4 Rocket - Orbit

View from above orbital plane
View from above orbital plane
View from above satellite
View from above satellite

Ground track
Ground track

The orbit data is extracted from the following two-line orbital elements,

1  4394U 70037B   17290.59631952 +.00001766 +00000-0 +61213-4 0  9993
2  4394 081.2432 231.0862 0041867 066.6647 293.8984 15.28363212583939
Epoch (UTC): 17 October 2017 14:18:42
Eccentricity: 0.0041867
inclination: 81.2432°
perigee height: 452 km
apogee height: 509 km
right ascension of ascending node: 231.0862°
argument of perigee: 66.6647°
revolutions per day: 15.28363212
mean anomaly at epoch: 293.8984°
orbit number at epoch: 58393

The dashed part of the orbit path shows where the satellite is in the earth's shadow,  

DLR